Home > Weather > Mabalacat > Past weeks

Flag for Philippines Weather for the Past 2 Weeks in Mabalacat, Philippines

Now
81 °F

Mostly cloudy.


Feels Like: 87 °F
Forecast: 80 / 95 °F
Wind: 2 mph from Southeast

Location: Clarkfield Pampanga International Airport

Current Time: Apr 29, 2016 at 10:06:43 PM

Latest Report: Apr 29, 2016 at 9:00 PM


Visibility: 5 mi

Pressure: 29.89 "Hg

Humidity: 89%

Dew Point: 77 °F

Location of MabalacatLocation

Historic Weather in Mabalacat — Graph

°F

Mabalacat Temperature Yesterday

Maximum temperature yesterday: 97 °F (at 1:00 PM)
Minimum temperature yesterday: 81 °F (at 4:00 AM)
Average temperature yesterday: 86 °F

High & Low Weather Summary for the Past Weeks

 TemperatureHumidityPressure
High99 °F (Apr 18, 3:00 PM)100% (Apr 23, 2:00 AM)30.01 "Hg (Apr 23, 2:00 AM)
Low75 °F (Apr 27, 5:00 AM)47% (Apr 18, 3:00 PM)29.74 "Hg (Apr 27, 3:00 PM)
Average87 °F73%29.89 "Hg
* Reported Apr 14 9:00 PM — Apr 29 9:00 PM, Mabalacat, Weather by CustomWeather, © 2016

Note: Actual official high and low records may vary slightly from our data, if they occured in-between our weather recording intervals... More about our weather records

Advertising

Mabalacat Weather History for the Previous 24 Hours

Scroll right to see more
 ConditionsComfort  
Time TempWeatherWind HumidityBarometerVisibility
9:00 PM
Fri, Apr 29
81 °FMostly cloudy.2 mph89%29.89 "Hg5 mi
8:00 PM81 °FPartly cloudy.3 mph89%29.89 "Hg5 mi
7:00 PM81 °FThunderstorms. Mostly cloudy.5 mph84%29.89 "Hg5 mi
6:00 PM84 °FBroken clouds.3 mph79%29.86 "Hg5 mi
5:00 PM82 °FMore clouds than sun.1 mph79%29.83 "Hg4 mi
4:00 PM84 °FSprinkles. More clouds than sun.8 mph70%29.80 "Hg4 mi
3:00 PM97 °FThunderstorms. Broken clouds.14 mph50%29.80 "Hg5 mi
2:00 PM97 °FBroken clouds.2 mph50%29.80 "HgN/A
1:00 PM95 °FBroken clouds.7 mph63%29.83 "HgN/A
12:00 PM93 °FBroken clouds.8 mph63%29.89 "HgN/A
10:00 AM86 °FBroken clouds.6 mph70%29.92 "Hg5 mi
9:00 AM86 °FBroken clouds.3 mph70%29.92 "HgN/A
8:00 AM82 °FBroken clouds.3 mph79%29.89 "HgN/A
7:00 AM81 °FPartly sunny.2 mph84%29.89 "Hg6 mi
6:00 AM81 °FBroken clouds.1 mph84%29.86 "Hg6 mi
5:00 AM81 °FPartly cloudy.1 mph79%29.83 "Hg5 mi
4:00 AM81 °FPassing clouds.2 mph79%29.83 "Hg5 mi
2:00 AM81 °FPassing clouds.1 mph79%29.86 "Hg5 mi
12:00 AM81 °FPassing clouds.2 mph79%29.89 "Hg5 mi
11:00 PM
Thu, Apr 28
81 °FPartly cloudy.5 mph84%29.92 "Hg5 mi
10:00 PM82 °FMostly cloudy.5 mph84%29.92 "Hg5 mi
Weather by CustomWeather, © 2016

See weather overviewHow to use our weather pages